Погода в Демянске

Погода в Демянске : погода сейчас, прогноз погоды и архив. Всё, что Вы хотите узнать о погоде в Демянске!

Поиск расширенной информации на нашем сайте:

Другие новости

Новости СМИ2

Главная страница сайта

Новости сайта

03.07.2017

Напоминаем, что на нашем специализированном сайте Метеоцентр.Азия вы можете получить высокодетализированные автоматические прогнозы погоды по пунктам России, СНГ и мира в авиационном формате (включающие направление и скорость ветра, видимость, явления погоды, количество и форму облачности, нижнюю и верхнюю границу облачности).

Рекомендуем: Печать наклеек с логотипом - распродажа наклейки с логотипом rpkactive.com.ua.

Погода в Демянске - сегодня

Время (UTC), дата Ветер
(°,м/с) 
Видим.   Явления Облачность Т
(°С)
Тd
(°С)
f(%) Тe
(°С)
Pmin
(гПа)
dP
(гПа)
Po
(мм)
O2
(г/м3)
Тmin Tmax R s Состояние
почвы
03 17.10.17 300 (СЗ) 4{12}  20000 м    ясно 
+9.2 +5.5 78 +8  1011.8  2.6  753  293  +8.8    0.5     
06 17.10.17 280 (З) 20000 м    10/10 600 м 
+7.3 +4.9 85 +7  1014.2  2.3  755  296  +7.3         
09 17.10.17 270 (З) 20000 м    10/0 средняя 
[Ac As]
+8.5 +4.2 74 +8  1015.5  1.3  756  295           
12 17.10.17 260 (З) 20000 м    10/0 средняя 
[Ac As]
+9.3 +3.1 65 +9  1015.2  -0.3  756  294           
15 17.10.17 230 (ЮЗ) 20000 м    10/0 средняя 
[Ac As]
+8.3 +3.9 74 +8  1013.6  -1.7  755  294           
18 17.10.17 120 (ЮВ) 20000 м  в посл. час ливневой дождь  10/10 840 м кучево-дожд. 
[Cb calv]
+6.8 +6 95 +8  1010.8  -2.8  752  295    +9.8     
21 17.10.17 230 (ЮЗ) 20000 м  {гроза, ливн. осадки}  10/10 420 м кучево-дожд. 
[Cb calv]
+9.9 +9 94 +9  1006.7  -3.9  749  290           
00 18.10.17 240 (ЮЗ) 20000 м  {гроза, ливн. осадки}  9/9 1000 м 
[Sc]
+12.1 +10.4 89 +14  1004.7  -2  748  287           
03 18.10.17 240 (ЮЗ) 3{10}  20000 м  {ливн. осадки}  10/4 600 м кучево-дожд., средняя 
[Cb calv|Ac As]
+12.4 +10.1 86 +13  1003.4  -1.2  747  286  +6.8       
06 18.10.17 250 (З) 4-10{10}  20000 м  {ливн. осадки}  8/0 средняя 
[Ac trans]
+12.2 +8.3 77 +12  1002.5  -0.9  746  286  +6.8       
09 18.10.17 270 (З) 5-10{14}  20000 м    8/8 1000 м 
[Sc]
+12.9 +6.4 65 +12  1001.8  -0.7  746  286           
12 18.10.17 260 (З) 4{11}  20000 м    10/0 средняя 
[Ac As]
+12.4 +7.2 71 +12  1001.8  746  286           
15 18.10.17 280 (З) 7-16{16}  4000 м  слаб. ливневой дождь  10/10 400 м кучево-дожд. 
[Cb calv]
+10.8 +9.2 90 +9  1003  1.2  747  288         
18 18.10.17 310 (СЗ) 3{16}  20000 м  {ливн. осадки}  8/0 средняя 
[Ac As]
+7.2 +3.4 77 +6  1007.9  4.7  750  294    +13.3     
21 18.10.17 250 (З) 20000 м    ясно 
+3.9 +2.4 90 +5  1009.7  1.7  752  298           
00 19.10.17 250 (З) 20000 м    ясно 
+3.7 +2.4 91 +3  1010.8  1.1  752  299           
03 19.10.17 260 (З) 20000 м    10/10 480 м кучево-дожд. 
[Cb calv]
+4.9 +3.1 88 +4  1012.1  1.3  753  298  +3.4    0.7     
06 19.10.17 260 (З) 20000 м  в посл. час ливневой дождь  10/8 420 м кучево-дожд., средняя 
[Cb calv|Ac As]
+5.1 +3.6 90 +5  1013.5  1.5  755  298  +3.4    0.0     
09 19.10.17 280 (З) 20000 м  {ливн. осадки}  9/6 600 м кучево-дожд., средняя 
[Cb calv|Ac trans]
+6.5 +4.5 87 +6  1015.3  1.8  756  297           
12 19.10.17 280 (З) 20000 м  {ливн. осадки}  8/4 600 м кучево-дожд., средняя, верхняя 
[Cb calv|Ac trans|Ci fib]
+7.2 +3 75 +6  1016.4  1.1  757  297           
15 19.10.17 260 (З) 20000 м    8/4 600 м кучево-дожд., средняя 
[Cb calv|Ac trans]
+6.2 +2.9 79 +6  1017.4  0.9  757  298      0.3     
18 19.10.17 250 (З) 20000 м  {ливн. осадки}  ясно 
+3.6 +2.6 93 +4  1018.7  1.3  758  301    +8.4  0.9     
21 19.10.17 280 (З) 20000 м    ясно 
+3.1 +2.1 93 +4  1019.8  1.3  759  302           
00 20.10.17 тихо ()   20000 м    ясно 
+0.2 -0.6 94 1020.9  760  306           
03 20.10.17 тихо ()   20000 м    ясно 
+1.3 +0.5 94 +1  1021.4  0.6  760  305  +0.1    0.6     
Время (UTC), дата Ветер
(°,м/с) 
Видим.   Явления Облачность Т
(°С)
Тd
(°С)
f(%) Тe
(°С)
Pmin
(гПа)
dP
(гПа)
Po
(мм)
O2
(г/м3)
Тmin Tmax R s Состояние
почвы

Для получения пояснительной информации подведите курсор к названию столбца.

ПОГОДА в Демянске - архив

Всё, что Вы хотите узнать о погоде в Демянске - удобно и подробно!

Выберите нужную дату (начиная с 1 января 2015* года) и нажмите кнопку "Найти".
Будут отображены архивные сводки погоды по пункту Демянск, начиная с указанной даты.


Отображать данные в формате CSV (для использования в таблицах Excel)


Внимание! Наш архив погоды предназначен исключительно для личного некоммерческого использования в познавательных целях. Если Вам необходимы официальные справки о состоянии погоды (для производственных, юридических, коммерческих и т.п. целей), обращайтесь в органы Росгидромета.

*Примечание: данная дата относится к архиву по метеостанциям СССР (Россия, СНГ, Балтия).
Архив по метеостанциям Зарубежной Европы и Азии (кроме Китая) хранится 10 дней, по другим регионам земного шара (Китай, Африка, Америка, Австралия, Океания) - 1 день.

Демянск - район местоположения метеостанции


Название, широта, долгота, высота метеостанции:
Демянск 57.6°ш. 32.5°д. 62 м над ур. моря [Российская Федерация]

Дополнительная информация

В oтличие oт бoльшинства пoгoдных сайтoв мы публикуем пoдрoбную метеoинфoрмацию в детальнoм прoфессиoнальнoм фoрмате.

Характеристики температуры и влажнoсти вoздуха измеряются на высoте 2 м в тени вдали oт зданий и деревьев.
Скoрoсть ветра измеряется на высoте 10 м (на урoвне рoста челoвека скoрoсть ветра ниже в 1.5-2 раза). Если метеoстанция нахoдится в гoрoде или в лесу, тo скoрoсть ветра занижена на 2-4 м/с пo сравнению с oткрытым местoм. Скoрoсть ветра над акватoриями крупных рек и oзёр, а также на вершинах хoлмoв на 2-5 м/с выше, чем в oбычных услoвиях.
Атмoсфернoе давление в разных тoчках местнoсти мoжет значительнo oтличаться oт давления на метеoстанции, в зависимoсти oт услoвий рельефа (при пoдъёме на 10 м давление пoнижается примернo на 1 мм рт.ст.).